Location: São Paulo
(23.5507°S, 46.6334°W)
Time: 07:07:15
(UTC-03:00)

Transit 4A - Pass Details

Date: 25 February 2026
Orbit: 864 x 977 km, 66.8° (Epoch: 11 March)

Event Time Altitude Azimuth Distance (km) Brightness Sun altitude
Rises 12:55:19 0° 347° (NNW) 3,656 11.2 73.0°
Reaches altitude 10° 12:57:54 10° 350° (N) 2,712 10.7 72.7°
Maximum altitude 13:04:10 63° 70° (ENE) 1,070 9.3 71.9°
Drops below altitude 10° 13:10:23 10° 149° (SSE) 2,689 10.2 71.0°
Sets 13:12:56 0° 152° (SSE) 3,624 10.8 70.6°
